TimeCDT,TemperatureF,Dew PointF,Humidity,Sea Level PressureIn,VisibilityMPH,Wind Direction,Wind SpeedMPH,Gust SpeedMPH,PrecipitationIn,Events,Conditions,WindDirDegrees,DateUTC
12:56 AM,48.0,43.0,83,29.99,-9999.0,Calm,Calm,-,N/A,,Unknown,0,2013-07-04 05:56:00
1:56 AM,48.0,42.1,80,29.97,-9999.0,Calm,Calm,-,N/A,,Unknown,0,2013-07-04 06:56:00
2:56 AM,48.0,39.9,74,29.96,-9999.0,Calm,Calm,-,N/A,,Unknown,0,2013-07-04 07:56:00
3:56 AM,46.0,42.1,86,29.95,-9999.0,Calm,Calm,-,N/A,,Unknown,0,2013-07-04 08:56:00
4:56 AM,44.1,39.9,85,29.96,-9999.0,Calm,Calm,-,N/A,,Unknown,0,2013-07-04 09:56:00
5:56 AM,45.0,41.0,86,29.97,-9999.0,Calm,Calm,-,N/A,,Unknown,0,2013-07-04 10:56:00
6:56 AM,46.0,42.1,86,29.97,-9999.0,Calm,Calm,-,N/A,,Unknown,0,2013-07-04 11:56:00
7:56 AM,48.0,43.0,83,29.99,-9999.0,WSW,3.5,-,N/A,,Unknown,240,2013-07-04 12:56:00
8:56 AM,48.9,44.1,83,29.96,-9999.0,WSW,5.8,-,N/A,,Unknown,240,2013-07-04 13:56:00
9:56 AM,51.1,42.1,71,29.95,-9999.0,Calm,Calm,-,N/A,,Unknown,0,2013-07-04 14:56:00
10:56 AM,48.9,42.1,77,29.96,-9999.0,WSW,4.6,-,N/A,,Unknown,240,2013-07-04 15:56:00
11:56 AM,48.9,41.0,74,29.96,-9999.0,SW,4.6,-,N/A,,Unknown,230,2013-07-04 16:56:00
12:56 PM,55.9,46.0,69,29.94,-9999.0,SW,4.6,-,N/A,,Unknown,220,2013-07-04 17:56:00
1:56 PM,55.9,46.0,69,29.92,-9999.0,Calm,Calm,-,N/A,,Unknown,0,2013-07-04 18:56:00
2:56 PM,55.0,46.0,72,29.92,-9999.0,SW,3.5,-,N/A,,Unknown,230,2013-07-04 19:56:00
3:56 PM,62.1,46.0,56,29.89,-9999.0,Calm,Calm,-,N/A,,Unknown,0,2013-07-04 20:56:00
4:56 PM,64.9,48.9,56,29.88,-9999.0,Calm,Calm,-,N/A,,Unknown,0,2013-07-04 21:56:00
5:56 PM,62.1,48.0,60,29.88,-9999.0,Calm,Calm,-,N/A,,Unknown,0,2013-07-04 22:56:00
6:56 PM,53.1,44.1,71,29.90,-9999.0,Calm,Calm,-,N/A,,Unknown,0,2013-07-04 23:56:00
7:56 PM,55.0,48.0,77,29.88,-9999.0,Calm,Calm,-,N/A,,Unknown,0,2013-07-05 00:56:00
8:56 PM,52.0,46.9,83,29.88,-9999.0,Calm,Calm,-,N/A,,Unknown,0,2013-07-05 01:56:00
9:56 PM,55.0,48.0,77,29.89,-9999.0,Calm,Calm,-,N/A,,Unknown,0,2013-07-05 02:56:00
10:56 PM,54.0,48.9,83,29.88,-9999.0,NE,3.5,-,N/A,,Unknown,50,2013-07-05 03:56:00
11:56 PM,54.0,48.9,83,29.88,-9999.0,Calm,Calm,-,N/A,,Unknown,0,2013-07-05 04:56:00